Location: Gälforsberget
(66.6500°N, 22.4167°E)
Time: 21:35:20
(UTC+00:00)

SKYMED 3 - Pass Details

Date: 11 April 2026
Orbit: 535 x 557 km, 97.8° (Epoch: 16 May)

Event Time Altitude Azimuth Distance (km) Brightness Sun altitude
Rises 19:34:25 0° 20° (NNE) 2,715 8.2 -8.3°
Reaches altitude 10° 19:36:33 10° 21° (NNE) 1,816 7.3 -8.5°
Maximum altitude 19:40:29 89° 106° (ESE) 548 4.3 -8.7°
Drops below altitude 10° 19:44:22 10° 202° (SSW) 1,798 6.7 -9.0°
Sets 19:46:29 0° 202° (SSW) 2,685 7.6 -9.1°
